• In Russia
  • List of Countries
  • For 7 days
  • Water Temperature
  • Satellite Maps
  • Weather Map
  • Weather Widgets
  • user-avatar
    Login

    Hourly Weather Hurghada

    Today, 25 May, Friday

    Time Temperature Precipitation Wind Pressure Humidity
    00:00 +29°C° 0 mm 4 mps 682 mmHg 14%
    01:00 +29°C° 0 mm 4 mps 682 mmHg 14%
    02:00 +28°C° 0 mm 3 mps 682 mmHg 15%
    03:00 +28°C° 0 mm 3 mps 682 mmHg 15%
    04:00 +27°C° 0 mm 3 mps 681 mmHg 16%
    05:00 +27°C° 0 mm 2 mps 681 mmHg 16%
    06:00 +28°C° 0 mm 2 mps 682 mmHg 16%
    07:00 +30°C° 0 mm 3 mps 682 mmHg 15%
    08:00 +31°C° 0 mm 3 mps 683 mmHg 14%
    09:00 +33°C° 0 mm 3 mps 683 mmHg 14%
    10:00 +34°C° 0 mm 3 mps 683 mmHg 14%
    11:00 +35°C° 0 mm 3 mps 683 mmHg 14%
    12:00 +35°C° 0 mm 3 mps 683 mmHg 13%
    13:00 +36°C° 0 mm 3 mps 683 mmHg 13%
    14:00 +36°C° 0 mm 4 mps 682 mmHg 12%
    15:00 +36°C° 0 mm 4 mps 682 mmHg 13%
    16:00 +35°C° 0 mm 4 mps 682 mmHg 13%
    17:00 +35°C° 0 mm 4 mps 682 mmHg 14%
    18:00 +34°C° 0 mm 3 mps 682 mmHg 15%
    19:00 +32°C° 0 mm 2 mps 682 mmHg 17%
    20:00 +30°C° 0 mm 1 mps 681 mmHg 18%
    21:00 +30°C° 0 mm 1 mps 681 mmHg 19%
    22:00 +29°C° 0 mm 1 mps 681 mmHg 19%
    23:00 +29°C° 0 mm 1 mps 681 mmHg 20%

    Tomorrow, 26 May, Saturday

    Time Temperature Precipitation Wind Pressure Humidity
    00:00 +28°C° 0 mm 1 mps 681 mmHg 20%
    01:00 +28°C° 0 mm 2 mps 680 mmHg 21%
    02:00 +28°C° 0 mm 2 mps 680 mmHg 21%
    03:00 +27°C° 0 mm 2 mps 680 mmHg 22%
    04:00 +26°C° 0 mm 2 mps 680 mmHg 23%
    05:00 +26°C° 0 mm 2 mps 680 mmHg 24%
    06:00 +28°C° 0 mm 2 mps 680 mmHg 22%
    07:00 +30°C° 0 mm 2 mps 681 mmHg 20%
    08:00 +32°C° 0 mm 2 mps 681 mmHg 17%
    09:00 +34°C° 0 mm 2 mps 682 mmHg 16%
    10:00 +35°C° 0 mm 2 mps 682 mmHg 15%
    11:00 +36°C° 0 mm 3 mps 682 mmHg 13%
    12:00 +36°C° 0 mm 3 mps 682 mmHg 13%
    13:00 +37°C° 0 mm 4 mps 681 mmHg 13%
    14:00 +37°C° 0 mm 4 mps 681 mmHg 12%
    15:00 +37°C° 0 mm 5 mps 681 mmHg 12%
    16:00 +36°C° 0 mm 5 mps 680 mmHg 12%
    17:00 +36°C° 0 mm 5 mps 680 mmHg 12%
    18:00 +35°C° 0 mm 4 mps 680 mmHg 14%
    19:00 +34°C° 0 mm 4 mps 681 mmHg 16%
    20:00 +33°C° 0 mm 3 mps 681 mmHg 17%
    21:00 +31°C° 0 mm 3 mps 681 mmHg 18%
    22:00 +30°C° 0 mm 3 mps 681 mmHg 19%
    23:00 +30°C° 0 mm 3 mps 681 mmHg 20%

    Day after tomorrow, 27 May, Sunday

    Time Temperature Precipitation Wind Pressure Humidity
    00:00 +29°C° 0 mm 3 mps 680 mmHg 22%
    01:00 +28°C° 0 mm 3 mps 680 mmHg 23%
    02:00 +28°C° 0 mm 3 mps 680 mmHg 25%
    03:00 +27°C° 0 mm 3 mps 680 mmHg 28%
    04:00 +26°C° 0 mm 3 mps 680 mmHg 32%
    05:00 +26°C° 0 mm 3 mps 680 mmHg 35%
    06:00 +27°C° 0 mm 3 mps 680 mmHg 32%
    07:00 +29°C° 0 mm 3 mps 681 mmHg 30%
    08:00 +30°C° 0 mm 3 mps 681 mmHg 27%
    09:00 +31°C° 0 mm 3 mps 682 mmHg 25%
    10:00 +34°C° 0 mm 3 mps 682 mmHg 22%
    11:00 +35°C° 0 mm 3 mps 682 mmHg 19%
    12:00 +35°C° 0 mm 4 mps 682 mmHg 18%
    13:00 +36°C° 0 mm 4 mps 682 mmHg 16%
    14:00 +37°C° 0 mm 5 mps 682 mmHg 15%
    15:00 +36°C° 0 mm 4 mps 681 mmHg 16%
    16:00 +36°C° 0 mm 4 mps 681 mmHg 17%
    17:00 +35°C° 0 mm 3 mps 681 mmHg 19%
    18:00 +34°C° 0.3 mm 3 mps 681 mmHg 21%
    19:00 +31°C° 0.3 mm 3 mps 681 mmHg 23%
    20:00 +30°C° 0.3 mm 3 mps 681 mmHg 26%
    21:00 +30°C° 0.1 mm 3 mps 681 mmHg 26%
    22:00 +29°C° 0.1 mm 3 mps 681 mmHg 27%
    23:00 +29°C° 0.1 mm 3 mps 681 mmHg 28%

    28 May, Monday

    Time Temperature Precipitation Wind Pressure Humidity
    00:00 +28°C° 0.2 mm 3 mps 681 mmHg 30%
    01:00 +27°C° 0.2 mm 3 mps 681 mmHg 32%
    02:00 +27°C° 0.2 mm 3 mps 680 mmHg 34%
    03:00 +27°C° 0.3 mm 3 mps 681 mmHg 34%
    04:00 +27°C° 0.3 mm 3 mps 681 mmHg 34%
    05:00 +27°C° 0.3 mm 3 mps 681 mmHg 34%
    06:00 +27°C° 0.3 mm 3 mps 681 mmHg 34%
    07:00 +28°C° 0.3 mm 3 mps 681 mmHg 34%
    08:00 +28°C° 0.3 mm 4 mps 682 mmHg 34%
    09:00 +29°C° 0 mm 3 mps 682 mmHg 32%
    10:00 +30°C° 0 mm 3 mps 682 mmHg 29%
    11:00 +31°C° 0 mm 3 mps 682 mmHg 27%
    12:00 +33°C° 0 mm 3 mps 682 mmHg 25%
    13:00 +34°C° 0 mm 3 mps 681 mmHg 23%
    14:00 +34°C° 0 mm 3 mps 681 mmHg 21%
    15:00 +34°C° 0 mm 3 mps 681 mmHg 21%
    16:00 +34°C° 0 mm 3 mps 681 mmHg 21%
    17:00 +34°C° 0 mm 3 mps 681 mmHg 20%
    18:00 +33°C° 0 mm 3 mps 681 mmHg 22%
    19:00 +31°C° 0 mm 3 mps 681 mmHg 23%
    20:00 +30°C° 0 mm 2 mps 681 mmHg 25%
    21:00 +30°C° 0 mm 3 mps 681 mmHg 26%
    22:00 +29°C° 0 mm 3 mps 681 mmHg 26%
    23:00 +29°C° 0 mm 3 mps 681 mmHg 27%

    29 May, Tuesday

    Time Temperature Precipitation Wind Pressure Humidity
    00:00 +28°C° 0 mm 3 mps 681 mmHg 27%
    01:00 +28°C° 0 mm 3 mps 680 mmHg 28%
    02:00 +27°C° 0 mm 3 mps 680 mmHg 28%
    03:00 +27°C° 0 mm 3 mps 680 mmHg 30%
    04:00 +26°C° 0 mm 3 mps 680 mmHg 32%
    05:00 +25°C° 0 mm 3 mps 680 mmHg 33%
    06:00 +27°C° 0 mm 3 mps 681 mmHg 32%
    07:00 +28°C° 0 mm 4 mps 681 mmHg 30%
    08:00 +29°C° 0 mm 4 mps 682 mmHg 29%
    09:00 +30°C° 0 mm 4 mps 682 mmHg 25%
    10:00 +32°C° 0 mm 4 mps 682 mmHg 22%
    11:00 +33°C° 0 mm 5 mps 682 mmHg 19%
    12:00 +34°C° 0 mm 5 mps 681 mmHg 18%
    13:00 +35°C° 0 mm 5 mps 681 mmHg 16%
    14:00 +35°C° 0 mm 6 mps 681 mmHg 15%
    15:00 +35°C° 0 mm 6 mps 681 mmHg 16%
    16:00 +34°C° 0 mm 6 mps 680 mmHg 18%
    17:00 +34°C° 0 mm 6 mps 680 mmHg 19%
    18:00 +33°C° 0 mm 5 mps 680 mmHg 21%
    19:00 +30°C° 0 mm 5 mps 681 mmHg 23%
    20:00 +29°C° 0 mm 4 mps 681 mmHg 25%
    21:00 +29°C° 0 mm 4 mps 681 mmHg 26%
    22:00 +28°C° 0 mm 4 mps 681 mmHg 27%
    23:00 +28°C° 0 mm 4 mps 681 mmHg 29%

    30 May, Wednesday

    Time Temperature Precipitation Wind Pressure Humidity
    00:00 +27°C° 0 mm 3 mps 680 mmHg 30%
    01:00 +27°C° 0 mm 3 mps 680 mmHg 32%
    02:00 +26°C° 0 mm 3 mps 680 mmHg 34%
    03:00 +26°C° 0 mm 3 mps 680 mmHg 37%
    04:00 +25°C° 0 mm 3 mps 680 mmHg 40%
    05:00 +24°C° 0 mm 3 mps 680 mmHg 42%
    06:00 +25°C° 0 mm 3 mps 680 mmHg 40%
    07:00 +26°C° 0 mm 4 mps 681 mmHg 39%
    08:00 +27°C° 0 mm 4 mps 681 mmHg 37%
    09:00 +28°C° 0 mm 4 mps 682 mmHg 33%
    10:00 +29°C° 0 mm 4 mps 682 mmHg 28%
    11:00 +32°C° 0 mm 4 mps 682 mmHg 24%
    12:00 +32°C° 0 mm 4 mps 682 mmHg 22%
    13:00 +33°C° 0 mm 5 mps 682 mmHg 19%
    14:00 +34°C° 0 mm 5 mps 682 mmHg 17%
    15:00 +34°C° 0 mm 6 mps 682 mmHg 17%
    16:00 +34°C° 0 mm 6 mps 681 mmHg 17%
    17:00 +33°C° 0 mm 6 mps 681 mmHg 17%
    18:00 +32°C° 0 mm 6 mps 681 mmHg 18%
    19:00 +30°C° 0 mm 5 mps 682 mmHg 20%
    20:00 +29°C° 0 mm 5 mps 682 mmHg 21%
    21:00 +29°C° 0 mm 4 mps 682 mmHg 22%
    22:00 +28°C° 0 mm 4 mps 682 mmHg 22%
    23:00 +28°C° 0 mm 3 mps 682 mmHg 23%
    Show more